Retour au catalogue

COSMOS 2251 DEB

ActifLEO
NORAD 37320·DEBRIS·🇷🇺 Russia

Lancé Jun 16, 1993 depuis Plesetsk Cosmodrome

Loading…

Prochains Passages (prochaines 24 heures)

TLE

VieillissantSource: Space-Track

Époque: Sep 9, 2026, 02:38 UTC

1 37320U 93036BKL 26252.10996986  .00004732  00000-0  59332-3 0  9992
2 37320  74.0449  45.4209 0043504  62.8581 297.7022 14.81818417701487

Suivez COSMOS 2251 DEB en temps réel avec AllMySat

Download on the App Store